AAL4713 KDCA-KDSM

Flight info

Callsign AAL4713
Flight time N/A
Altitude 38000
Route WYNGS5 RAMAY Q72 HACKS J149 ROD SJAAY WHETT CADIZ BFORD IOW J10 DSM
Aircraft A319/M-SDE3FGHIRWY/LB1

Departure

Time 2026-05-06 12:29
Airport Ronald Reagan Washington National Airport (KDCA)

Arrival

Time N/A
Airport Des Moines International Airport (KDSM)
Time Latitude Longitude Altitude Speed Heading
2026-05-06 11:57 38.85561 -77.04220 24 ft 0 kts 336°
2026-05-06 12:21 38.85558 -77.04219 24 ft 3 kts 337°
2026-05-06 12:22 38.85534 -77.04206 25 ft 2 kts 337°
2026-05-06 12:22 38.85517 -77.04199 27 ft 4 kts 33°
2026-05-06 12:22 38.85505 -77.04218 24 ft 1 kts 72°
2026-05-06 12:22 38.85513 -77.04188 24 ft 4 kts 72°
2026-05-06 12:23 38.85521 -77.04155 26 ft 4 kts 72°
2026-05-06 12:23 38.85529 -77.04122 26 ft 4 kts 72°
2026-05-06 12:23 38.85536 -77.04096 24 ft 0 kts 72°
2026-05-06 12:25 38.85536 -77.04093 24 ft 2 kts 72°
2026-05-06 12:25 38.85547 -77.04053 26 ft 8 kts 72°
2026-05-06 12:26 38.85564 -77.03978 24 ft 9 kts 67°
2026-05-06 12:26 38.85615 -77.03963 25 ft 9 kts 354°
2026-05-06 12:26 38.85672 -77.03969 27 ft 7 kts 357°
2026-05-06 12:26 38.85716 -77.03973 30 ft 8 kts 355°
2026-05-06 12:27 38.85791 -77.03981 28 ft 13 kts 355°
2026-05-06 12:27 38.85883 -77.03990 25 ft 13 kts 358°
2026-05-06 12:27 38.85979 -77.03964 24 ft 17 kts 16°
2026-05-06 12:27 38.86088 -77.03897 23 ft 17 kts 77°
2026-05-06 12:28 38.86025 -77.03861 24 ft 11 kts 176°
2026-05-06 12:28 38.85739 -77.03834 25 ft 78 kts 175°
2026-05-06 12:28 38.84981 -77.03760 27 ft 138 kts 176°
2026-05-06 12:28 38.83985 -77.03679 535 ft 144 kts 180°
2026-05-06 12:29 38.82991 -77.03634 1200 ft 142 kts 184°
2026-05-06 12:29 38.82010 -77.03613 1873 ft 143 kts 186°
2026-05-06 12:29 38.80952 -77.03601 2230 ft 163 kts 189°
2026-05-06 12:29 38.79737 -77.03593 2557 ft 185 kts 188°
2026-05-06 12:30 38.78382 -77.03576 2942 ft 205 kts 188°
2026-05-06 12:30 38.76873 -77.03557 3444 ft 226 kts 188°
2026-05-06 12:30 38.75382 -77.04082 4161 ft 225 kts 219°
2026-05-06 12:30 38.74500 -77.05735 4963 ft 234 kts 250°
2026-05-06 12:31 38.74247 -77.07835 5856 ft 243 kts 262°
2026-05-06 12:31 38.74209 -77.10034 6685 ft 251 kts 265°
2026-05-06 12:31 38.74212 -77.12284 7531 ft 254 kts 265°
2026-05-06 12:31 38.74188 -77.14564 8390 ft 258 kts 263°
2026-05-06 12:32 38.74120 -77.16872 9270 ft 261 kts 262°
2026-05-06 12:32 38.74019 -77.19199 10113 ft 264 kts 262°
2026-05-06 12:32 38.73905 -77.21633 10493 ft 286 kts 264°
2026-05-06 12:32 38.74083 -77.24295 10751 ft 315 kts 276°
2026-05-06 12:33 38.74769 -77.27088 11004 ft 343 kts 289°
2026-05-06 12:33 38.75986 -77.29788 11582 ft 355 kts 296°
2026-05-06 12:33 38.77301 -77.32483 12289 ft 359 kts 296°
2026-05-06 12:33 38.78618 -77.35217 13018 ft 362 kts 295°
2026-05-06 12:34 38.79941 -77.37990 13704 ft 366 kts 295°
2026-05-06 12:34 38.81254 -77.40754 14319 ft 369 kts 295°
2026-05-06 12:34 38.82613 -77.43607 15006 ft 371 kts 295°
2026-05-06 12:34 38.83943 -77.46390 15660 ft 372 kts 296°
2026-05-06 12:35 38.85301 -77.49228 16340 ft 373 kts 296°
2026-05-06 12:35 38.86659 -77.52068 17018 ft 374 kts 296°
2026-05-06 12:35 38.88021 -77.54920 17700 ft 375 kts 296°
2026-05-06 12:35 38.89387 -77.57782 18358 ft 377 kts 296°
2026-05-06 12:36 38.90773 -77.60690 18924 ft 378 kts 296°
2026-05-06 12:36 38.92145 -77.63574 19476 ft 379 kts 296°
2026-05-06 12:36 38.93378 -77.66504 20040 ft 375 kts 288°
2026-05-06 12:36 38.94151 -77.69679 20568 ft 371 kts 278°
2026-05-06 12:37 38.94431 -77.72968 21081 ft 370 kts 270°
2026-05-06 12:37 38.94540 -77.76274 21575 ft 372 kts 271°
2026-05-06 12:37 38.94654 -77.79613 22058 ft 374 kts 271°
2026-05-06 12:37 38.94772 -77.82958 22508 ft 376 kts 271°
2026-05-06 12:38 38.94892 -77.86317 22976 ft 377 kts 271°
2026-05-06 12:38 38.95011 -77.89689 23427 ft 379 kts 271°
2026-05-06 12:38 38.95130 -77.93085 23785 ft 381 kts 271°
2026-05-06 12:38 38.95250 -77.96501 24076 ft 385 kts 271°
2026-05-06 12:39 38.95370 -77.99938 24451 ft 386 kts 271°
2026-05-06 12:39 38.95488 -78.03386 24827 ft 387 kts 271°
2026-05-06 12:39 38.95602 -78.06839 25233 ft 387 kts 271°
2026-05-06 12:39 38.95715 -78.10302 25627 ft 388 kts 271°
2026-05-06 12:40 38.95828 -78.13765 25999 ft 389 kts 271°
2026-05-06 12:40 38.95941 -78.17244 26368 ft 389 kts 271°
2026-05-06 12:40 38.96014 -78.19546 26609 ft 390 kts 272°
2026-05-06 12:40 38.96132 -78.23025 26962 ft 391 kts 272°
2026-05-06 12:41 38.96310 -78.26513 27300 ft 392 kts 274°
2026-05-06 12:41 38.96538 -78.30003 27637 ft 393 kts 274°
2026-05-06 12:41 38.96790 -78.33503 27955 ft 393 kts 275°
2026-05-06 12:41 38.97046 -78.37007 28278 ft 394 kts 275°
2026-05-06 12:42 38.97292 -78.40517 28621 ft 394 kts 274°
2026-05-06 12:42 38.97526 -78.44017 29107 ft 391 kts 274°
2026-05-06 12:42 38.97749 -78.47480 29611 ft 388 kts 274°
2026-05-06 12:42 38.97965 -78.50924 30113 ft 385 kts 274°
2026-05-06 12:43 38.98175 -78.54332 30549 ft 381 kts 274°
2026-05-06 12:43 38.98384 -78.57724 30964 ft 378 kts 274°
2026-05-06 12:43 38.98590 -78.61081 31360 ft 376 kts 275°
2026-05-06 12:43 38.98797 -78.64419 31734 ft 374 kts 275°
2026-05-06 12:44 38.99004 -78.67741 32121 ft 372 kts 275°
2026-05-06 12:44 38.99210 -78.71046 32518 ft 370 kts 275°
2026-05-06 12:44 38.99414 -78.74333 32902 ft 368 kts 275°
2026-05-06 12:44 38.99614 -78.77607 33325 ft 366 kts 275°
2026-05-06 12:45 38.99811 -78.80855 33740 ft 363 kts 275°
2026-05-06 12:45 39.00004 -78.84081 34120 ft 361 kts 275°